Bookmark and Share
Track history (hours):
 

Emmagracht

Last reported at 2014-Apr-24 01:31 UTC. Time now 2014-Apr-24 02:08 UTC.
Position N 53°04' E 004°13'.

Length 136 m; beam 19 m; draft 9 m.

Type: Cargo ship. MMSI: 246308000.

NotesDate/timePositionNaut miles runAvg speedWind from/ knotsBaromVisibWave heightAir tempDewpointWater temp
2014-Apr-24 01:31N 53°04' E 004°13'0 0.4
2014-Apr-24 00:31N 53°04' E 004°13'5 4.9
2014-Apr-23 23:34N 53°07' E 004°19'1211.7
2014-Apr-23 22:33N 53°17' E 004°29'1212.4
2014-Apr-23 21:33N 53°28' E 004°38'1212.4
2014-Apr-23 20:33N 53°33' E 004°58'1312.8
2014-Apr-23 19:34N 53°37' E 005°18'1313.4
2014-Apr-23 18:33N 53°42' E 005°39'1313.3
2014-Apr-23 17:33N 53°45' E 006°01'1313.0
2014-Apr-23 16:33N 53°49' E 006°22'1312.6
2014-Apr-23 15:32N 53°52' E 006°43'1312.1
2014-Apr-23 14:29N 53°55' E 007°04'1111.9
2014-Apr-23 13:33N 53°58' E 007°23'1111.0
2014-Apr-23 12:33N 53°57' E 007°41'1010.5
2014-Apr-23 11:33N 53°52' E 007°56'1212.2
2014-Apr-23 10:33N 53°45' E 008°13'1313.3
2014-Apr-23 09:33N 53°36' E 008°30'3 3.1
2014-Apr-23 08:32N 53°33' E 008°34'0 0.5
2014-Apr-23 07:33N 53°34' E 008°34'0 0.0
2014-Apr-23 06:33N 53°34' E 008°34'0 0.0
2014-Apr-23 05:34N 53°34' E 008°34'0 0.0
2014-Apr-23 04:34N 53°34' E 008°34'0 0.0
2014-Apr-23 03:34N 53°34' E 008°34'0 0.0
2014-Apr-23 02:34N 53°34' E 008°34'0 0.0
2014-Apr-23 01:34N 53°34' E 008°34'0 0.0
2014-Apr-23 00:34N 53°34' E 008°34'0 0.0
2014-Apr-22 23:33N 53°34' E 008°34'0 0.0
2014-Apr-22 22:34N 53°34' E 008°34'0 0.0
2014-Apr-22 21:34N 53°34' E 008°34'0 0.0
2014-Apr-22 20:34N 53°34' E 008°34'0 0.0
2014-Apr-22 19:33N 53°34' E 008°34'0 0.0
2014-Apr-22 18:34N 53°34' E 008°34'0 0.0
2014-Apr-22 17:33N 53°34' E 008°34'0 0.0
2014-Apr-22 16:33N 53°34' E 008°34'0 0.0
2014-Apr-22 15:34N 53°34' E 008°34'0 0.0
2014-Apr-22 14:34N 53°34' E 008°34'0 0.0
2014-Apr-22 13:34N 53°34' E 008°34'0 0.0
2014-Apr-22 12:34N 53°34' E 008°34'0 0.0
2014-Apr-22 11:34N 53°34' E 008°34'0 0.0
2014-Apr-22 10:34N 53°34' E 008°34'0 0.0
2014-Apr-22 09:34N 53°34' E 008°34'0 0.0
2014-Apr-22 08:33N 53°34' E 008°34'0 0.0
2014-Apr-22 07:34N 53°34' E 008°34'0 0.0
2014-Apr-22 06:34N 53°34' E 008°34'0 0.0
2014-Apr-22 05:34N 53°34' E 008°34'0 0.0
2014-Apr-22 04:33N 53°34' E 008°34'0 0.0
2014-Apr-22 03:34N 53°34' E 008°34'0 0.4
2014-Apr-22 02:33N 53°34' E 008°34'1 0.6
2014-Apr-22 01:34N 53°34' E 008°33'1211.5
2014-Apr-22 00:33N 53°42' E 008°19'1212.4
2014-Apr-21 23:33N 53°50' E 008°03'7 7.2
2014-Apr-21 22:33N 53°53' E 007°52'0 0.1
2014-Apr-21 21:33N 53°53' E 007°52'0 0.0
2014-Apr-21 20:34N 53°53' E 007°52'0 0.0
2014-Apr-21 19:34N 53°53' E 007°52'4 3.6
2014-Apr-21 18:33N 53°56' E 007°55'1010.1
2014-Apr-21 17:34N 54°00' E 008°11'1312.5
2014-Apr-21 16:33N 53°58' E 008°32'1010.4
2014-Apr-21 15:34N 53°51' E 008°45'9 8.9
2014-Apr-21 14:34N 53°51' E 009°00'6 6.4
2014-Apr-21 13:34N 53°53' E 009°11'2 1.5
2014-Apr-21 12:34N 53°54' E 009°09'5 4.5
2014-Apr-21 11:34N 53°57' E 009°14'7 6.5
2014-Apr-21 10:34N 54°03' E 009°18'6 6.4
2014-Apr-21 09:34N 54°09' E 009°22'7 6.7
2014-Apr-21 08:33N 54°12' E 009°32'7 6.6
2014-Apr-21 07:34N 54°17' E 009°39'6 6.2
2014-Apr-21 06:31N 54°21' E 009°47'46 2.7
2014-Apr-20 13:33N 54°36' E 011°02'1010.5
2014-Apr-20 12:33N 54°33' E 011°20'1111.2
2014-Apr-20 11:33N 54°28' E 011°37'1212.4
2014-Apr-20 10:33N 54°26' E 011°58'1010.4
2014-Apr-20 09:33N 54°32' E 012°12'1211.7
2014-Apr-20 08:32N 54°41' E 012°25'1212.2
2014-Apr-20 07:33N 54°48' E 012°43'1412.7
2014-Apr-20 06:27N 54°52' E 013°06'1112.2
2014-Apr-20 05:32N 54°55' E 013°24'1212.2
2014-Apr-20 04:31N 54°60' E 013°44'1212.5
2014-Apr-20 03:33N 55°04' E 014°04'1312.7
2014-Apr-20 02:33N 55°14' E 014°19'1312.5
2014-Apr-20 01:33N 55°24' E 014°32'1212.3
2014-Apr-20 00:33N 55°31' E 014°50'1312.6
2014-Apr-19 23:33N 55°37' E 015°10'1312.7
2014-Apr-19 22:33N 55°43' E 015°29'1212.3
2014-Apr-19 21:33N 55°49' E 015°48'1212.4
2014-Apr-19 20:33N 55°56' E 016°07'1212.4
2014-Apr-19 19:33N 56°02' E 016°26'  

Dump ship's entire track history

sailing weather and tide predictions

Emmagracht — PDYX — position and weather